Location: Cutler
(25.6150°N, 80.3110°W)
Time: 11:59:52
(UTC-05:00)

Cosmos 2360 Rocket - Visible Passes

Search period start: 30 January 2015 00:00
Search period end: 09 February 2015 00:00
Orbit: 836 x 844 km, 71.0° (Epoch: 29 January)

Date Brightness Start Highest point End Pass type
(mag) Time Alt. Az. Time Alt. Az. Time Alt. Az.
30 Jan 4.8 06:11:06 10° NNE 06:14:13 16° ENE 06:17:38 10° E visible
30 Jan 4.5 20:51:19 10° SSW 20:52:09 15° SSW 20:52:09 15° SSW visible
31 Jan 4.8 05:55:45 10° NNE 05:58:34 14° ENE 06:01:42 10° E visible
31 Jan 3.8 20:35:42 10° SSW 20:38:10 27° SSW 20:38:10 27° SSW visible
01 Feb 4.9 05:40:28 10° NNE 05:42:55 13° ENE 05:45:42 10° E visible
01 Feb 2.8 20:20:04 10° SSW 20:24:17 51° SW 20:24:17 51° SW visible
02 Feb 5.0 05:25:14 10° NE 05:27:14 12° ENE 05:29:38 10° E visible
02 Feb 2.1 20:04:27 10° SSW 20:10:04 81° WNW 20:10:29 75° NNW visible
03 Feb 5.0 05:10:08 10° NE 05:11:35 11° ENE 05:13:26 10° ENE visible
03 Feb 2.1 19:48:50 10° SSW 19:54:28 87° WNW 19:56:44 38° NNE visible
04 Feb 5.1 04:55:25 10° NE 04:55:55 10° ENE 04:56:51 10° ENE visible
04 Feb 2.2 06:34:57 10° NNW 06:40:34 74° WSW 06:46:11 10° S visible
04 Feb 2.1 19:33:15 10° SSW 19:38:52 87° ESE 19:43:00 19° NNE visible
05 Feb 2.2 06:19:21 10° NNW 06:24:58 80° WSW 06:30:36 10° SSE visible
05 Feb 2.1 19:17:39 10° SSW 19:23:16 81° ESE 19:28:54 10° NNE visible
06 Feb 2.2 06:03:44 10° NNW 06:09:22 86° WSW 06:15:01 10° SSE visible
06 Feb 2.1 19:02:04 10° S 19:07:39 75° ESE 19:13:17 10° NNE visible
06 Feb 5.1 20:51:37 10° WNW 20:52:20 10° WNW 20:52:36 10° NW visible
07 Feb 2.2 05:48:07 10° NNW 05:53:46 88° ENE 05:59:25 10° SSE visible
07 Feb 2.2 18:46:29 10° S 18:52:03 69° ESE 18:57:39 10° NNE visible
07 Feb 5.0 20:34:53 10° WNW 20:36:40 11° WNW 20:38:01 10° NW visible
08 Feb 2.2 05:32:31 10° NNW 05:38:10 82° ENE 05:43:48 10° SSE visible
08 Feb 2.2 18:30:55 10° S 18:36:27 64° ESE 18:42:01 10° NNE visible
08 Feb 5.0 20:18:40 10° W 20:21:00 12° WNW 20:22:57 10° NW visible
